Temperature
17 17 17 17 17 17 17 17 17 17 17 16 16 16 16 16 16 16 16 16 16 16 16 16 16 16 16 16 16 16 16 16 16 16 16 16 16 16 16 15 15 15 15
18 17 17 17 17 17 17 17 17 17 16 16 16 16 16 16 16 16 16 16 16 16 16 16 16 16 16 16 16 16 16 16 16 16 16 16 16 16 16 16 16 15 15
17 17 17 17 17 17 17 17 17 16 16 16 16 16 16 16 16 16 16 16 16 16 16 16 16 16 16 16 16 16 16 16 16 16 15 15 15 16 16 16 16 16 16
17 17 17 17 17 17 17 17 16 16 16 16 16 16 16 16 16 16 16 16 16 16 16 16 16 16 16 16 16 16 16 16 16 16 15 15 15 16 16 16 16 16 16
17 16 16 17 16 16 17 17 16 16 16 16 16 16 16 16 16 16 16 16 16 16 16 16 16 16 16 16 16 16 16 16 16 15 15 15 15 16 16 16 16 16 16
16 16 16 16 16 16 16 16 16 16 16 16 16 16 16 16 16 16 16 16 16 16 16 16 16 16 16 16 16 16 16 16 15 15 15 15 15 16 16 16 16 16 16
16 16 16 16 16 16 16 16 16 16 16 16 16 16 16 16 16 16 16 16 16 16 16 16 16 16 16 16 16 16 16 16 15 15 15 15 15 16 16 16 15 15 15
16 16 16 16 16 16 16 16 16 16 16 16 16 16 16 15 16 16 16 16 16 16 16 16 16 16 16 16 16 16 16 16 16 15 15 15 15 15 15 15 15 15 15
16 16 15 15 15 16 16 16 16 16 16 16 16 15 15 15 16 16 16 16 16 16 16 16 16 16 16 16 16 16 16 16 15 15 15 15 15 15 15 15 15 15 15
15 15 15 15 15 15 15 16 16 16 15 16 15 15 15 16 16 16 16 16 16 16 16 16 16 16 16 16 16 16 16 16 15 15 15 15 15 15 15 15 15 15 15
15 15 15 15 15 15 15 15 15 15 15 15 15 15 15 15 15 15 15 16 16 16 16 16 16 16 16 16 16 16 16 15 14 15 15 15 15 15 15 15 15 14 14
15 15 15 15 15 14 14 15 15 15 15 15 15 15 15 15 15 15 15 15 15 15 15 15 16 16 15 15 15 16 15 15 15 15 15 15 15 15 15 14 14 14 14
15 15 15 15 14 14 14 14 14 14 14 14 15 15 15 15 15 15 15 15 15 15 15 15 15 15 15 15 15 15 15 14 14 14 14 15 15 14 14 14 14 14 14
14 14 14 14 14 14 14 14 14 14 14 14 15 15 15 15 15 15 15 15 15 15 15 15 15 15 15 15 15 15 15 14 14 14 14 14 14 14 14 14 14 14 14
14 14 14 14 14 14 14 14 14 14 15 15 15 15 15 15 15 15 15 15 15 15 15 15 15 15 14 14 14 14 14 14 14 14 14 14 14 14 14 14 14 14 13
14 14 14 14 14 14 14 14 14 15 15 15 15 15 15 15 15 15 15 15 15 15 15 15 15 15 14 14 14 14 14 14 14 14 14 14 14 14 14 14 13 13 13
13 14 14 14 14 14 14 14 14 15 15 15 15 15 15 15 15 15 15 15 15 15 15 15 14 14 14 14 14 14 14 14 14 14 14 13 13 14 14 13 13 13 13
13 13 13 14 14 14 14 14 14 14 15 15 15 15 15 15 15 15 15 15 15 15 14 14 14 14 14 14 14 14 14 14 14 14 14 14 13 13 13 13 13 13 13
13 13 13 14 14 14 14 14 14 14 14 14 15 15 15 15 15 15 15 14 14 14 14 14 14 14 13 14 13 14 14 14 14 14 14 14 14 14 13 13 13 13 12
13 13 13 13 13 14 14 14 14 14 14 14 14 15 15 14 14 14 14 14 14 14 14 14 14 14 13 13 13 13 13 14 14 14 14 14 14 13 13 13 13 13 12
13 13 13 13 13 13 13 13 13 13 14 14 14 14 14 14 14 14 14 14 14 14 14 14 13 13 13 13 13 13 13 13 13 14 14 13 13 13 13 13 13 12 12
12 13 13 13 13 13 13 13 14 13 14 14 14 14 14 14 14 14 14 14 14 14 14 13 13 13 13 13 12 12 12 13 13 13 13 13 13 13 13 13 12 12 12
12 12 12 13 13 13 13 13 13 13 13 13 13 13 14 14 14 14 14 14 14 14 14 13 13 13 13 13 12 12 12 13 12 12 13 13 13 12 12 12 12 12 11
12 12 12 12 12 13 13 13 13 13 13 13 13 13 13 13 13 14 13 13 13 13 13 13 13 13 12 12 12 12 12 12 12 12 12 12 12 12 12 11 11 11 11
11 12 12 12 12 12 12 12 12 12 13 13 13 13 13 13 13 13 13 13 13 13 13 13 13 12 12 12 12 12 12 12 11 11 11 11 11 11 11 11 11 11 10
11 11 12 12 12 12 12 12 12 12 12 12 12 12 12 12 12 13 13 13 13 12 12 12 12 12 12 12 12 12 11 11 11 11 10 10 10 10 10 10 10 10 10
Wind_Speed
16 22 26 24 23 22 21 20 20 20 20 21 21 21 20 20 19 19 19 19 19 18 18 18 18 18 18 18 18 18 18 18 18 18 18 18 18 17 16 14 14 16 17
20 24 27 25 24 23 21 20 20 20 20 21 21 21 21 20 19 19 19 19 19 19 19 19 19 19 18 18 18 18 17 17 17 16 16 17 17 16 16 16 16 15 17
21 25 27 25 24 23 22 21 20 20 20 20 21 21 21 20 20 20 19 20 19 19 19 19 19 18 18 17 17 17 16 16 15 11 10 14 15 16 16 16 17 16 17
21 24 25 26 24 23 22 21 20 21 21 20 21 21 21 21 20 20 20 20 20 19 19 19 18 18 17 17 16 16 15 14 11 6 11 13 14 15 15 16 16 16 16
20 22 24 26 24 23 22 21 21 21 21 20 21 21 21 21 20 20 20 19 19 19 18 18 18 17 16 15 15 15 14 12 8 9 12 12 13 13 14 14 14 14 14
20 22 25 25 25 23 22 21 21 21 20 20 20 21 21 21 20 20 20 20 19 19 18 18 17 16 15 15 14 14 13 10 8 10 10 11 12 12 13 13 13 13 13
20 20 25 25 24 23 22 21 21 20 20 20 20 21 21 21 21 20 20 20 19 18 18 17 16 15 14 14 13 13 11 6 9 10 9 10 11 11 12 12 12 12 12
18 19 23 24 23 23 22 21 20 20 20 20 20 21 21 21 21 21 20 20 19 18 17 17 16 14 14 13 12 11 9 6 8 9 9 10 10 10 10 10 10 10 10
18 18 19 22 22 22 21 21 20 20 19 19 20 20 20 20 21 21 20 19 18 17 16 16 15 14 13 12 11 10 8 5 7 7 7 8 8 8 9 8 8 8 8
17 18 18 19 21 21 20 19 19 19 18 18 18 19 19 20 20 19 19 18 17 16 16 15 14 13 12 11 10 9 8 5 6 6 5 7 6 6 6 6 6 6 6
16 17 17 17 17 18 19 19 19 18 18 18 17 19 19 18 18 17 17 17 16 16 15 14 13 13 12 11 10 9 7 4 5 4 4 6 4 4 5 5 4 4 4
18 17 16 17 17 16 15 17 17 17 18 17 17 19 16 15 14 14 16 16 15 15 14 13 13 13 10 9 9 8 5 5 4 4 4 4 3 3 3 3 3 3 3
17 17 16 16 16 15 12 13 12 13 14 14 16 16 14 13 12 13 13 14 14 14 12 12 12 9 8 7 7 6 4 3 3 3 4 3 3 3 3 3 3 3 3
14 16 16 17 16 15 13 12 12 11 11 11 14 15 13 10 10 11 10 12 12 11 10 10 8 9 8 7 7 6 5 4 3 2 3 4 3 4 5 5 4 5 5
12 14 16 17 17 15 13 11 11 11 11 12 12 14 14 10 10 10 9 10 10 10 10 9 8 8 7 7 6 5 5 4 4 3 4 5 5 5 6 6 7 6 6
11 12 14 16 16 15 13 11 11 11 11 12 12 14 14 12 10 9 9 9 9 10 9 9 8 7 6 6 6 6 5 5 5 4 4 5 7 7 7 8 8 8 8
11 11 13 14 15 16 15 13 10 11 12 11 11 13 14 13 12 10 9 8 9 10 9 8 8 7 6 5 6 6 5 6 5 6 5 5 6 8 9 9 9 9 8
10 11 11 12 14 15 13 12 10 11 11 10 11 12 14 14 13 11 9 8 10 10 9 7 7 7 6 6 6 5 5 5 7 6 6 6 6 6 7 9 9 8 9
9 10 10 11 13 13 12 10 10 10 10 10 11 11 13 14 14 11 9 9 11 9 8 7 7 7 7 6 5 5 5 5 6 6 7 7 7 6 6 5 7 8 8
7 8 9 10 12 12 10 8 7 8 8 9 10 11 14 14 15 13 9 11 11 8 8 8 8 7 6 5 5 5 5 6 5 6 6 6 6 6 6 6 5 6 7
3 6 9 9 10 10 9 9 8 8 8 8 9 12 14 14 15 13 9 10 10 10 10 10 8 9 7 6 5 5 6 6 6 5 5 5 5 5 5 5 4 4 4
1 3 5 7 8 9 8 8 7 7 7 7 7 10 13 14 14 12 12 10 10 9 10 11 10 7 6 6 5 4 4 5 5 5 4 4 4 3 3 4 4 4 4
0 2 3 5 8 9 8 6 6 5 5 6 7 8 10 13 13 13 13 11 10 10 10 11 11 11 8 7 7 6 5 5 3 4 4 4 4 3 3 3 3 3 4
0 2 3 4 5 6 7 8 9 8 7 7 7 7 9 11 12 12 12 12 11 9 10 10 11 10 9 7 6 7 6 4 4 3 4 5 4 4 3 3 3 3 3
0 1 3 3 3 4 6 7 8 8 7 6 7 9 8 8 9 11 11 10 10 9 10 10 10 10 9 8 7 5 6 6 7 6 5 5 4 4 4 3 3 3 3
1 2 2 3 3 3 5 5 7 7 6 6 8 8 8 7 7 9 10 10 9 9 9 9 10 10 9 9 8 7 6 5 6 7 8 7 6 4 4 3 3 3 2
Wind_Direction
164 161 157 158 155 153 152 151 152 152 152 152 151 149 146 143 141 138 136 134 130 126 123 121 117 112 107 103 100 97 95 90 87 85 82 81 81 79 74 70 77 75 71
160 160 157 158 156 155 154 153 152 152 152 153 152 149 147 144 143 141 138 135 132 129 126 121 117 112 109 105 102 100 98 95 92 91 92 87 80 78 74 68 68 76 73
158 159 159 158 157 155 155 153 154 154 153 153 153 150 149 146 144 142 140 136 133 130 127 122 118 114 110 108 106 103 101 99 96 98 105 94 86 81 80 79 78 78 75
158 159 162 157 157 156 155 155 155 155 155 155 154 151 150 148 145 143 141 138 134 131 127 122 119 116 113 111 109 107 104 101 100 105 93 90 89 84 83 81 80 78 76
159 161 158 157 158 157 156 156 157 157 157 157 155 153 151 149 147 144 141 137 133 130 126 124 122 120 116 115 113 110 107 104 104 96 90 89 89 86 85 83 81 80 78
162 162 157 159 158 158 157 158 158 157 158 157 156 155 153 151 149 145 140 136 133 130 130 128 127 123 120 118 117 114 112 117 120 97 95 92 92 93 90 87 85 82 80
163 161 160 161 160 159 159 159 159 159 159 159 157 156 154 152 149 144 140 137 136 134 134 133 131 128 124 122 120 117 114 110 103 99 95 92 93 96 93 90 88 86 84
163 160 161 161 160 159 160 161 160 159 159 158 157 156 154 150 148 145 143 141 140 139 138 136 133 132 129 126 123 121 121 121 108 102 98 95 95 98 96 93 91 89 87
163 161 162 165 163 160 159 160 159 159 158 158 157 155 150 148 147 147 145 144 144 143 140 137 136 134 132 129 128 126 121 117 114 107 105 102 103 103 101 99 97 93 90
168 166 164 166 167 165 163 160 158 157 157 156 153 150 147 146 148 148 149 147 146 145 142 140 139 137 135 133 132 131 136 157 121 122 114 110 113 112 110 107 104 100 97
173 171 168 167 167 167 165 161 159 154 152 151 149 145 149 156 156 156 153 146 147 147 145 143 142 139 136 136 138 145 162 148 129 120 116 114 130 128 124 123 118 114 110
177 174 173 170 168 166 163 164 166 164 162 165 162 160 163 162 161 157 146 146 147 146 146 145 143 146 156 151 150 169 168 155 140 137 126 138 164 161 153 149 149 146 144
181 176 176 173 170 167 166 168 167 166 167 169 167 167 165 161 158 158 158 155 156 158 159 153 161 169 172 162 167 176 169 165 162 150 146 169 206 202 195 193 192 192 194
183 181 177 176 173 172 170 172 170 168 168 170 172 171 169 166 166 167 169 169 170 175 172 174 180 177 178 175 181 178 176 185 189 188 163 190 228 228 224 225 222 221 217
186 183 181 179 175 175 171 174 176 173 173 173 174 177 176 173 173 171 172 174 178 178 179 182 185 182 186 186 190 192 196 203 207 215 199 200 228 239 238 237 236 235 234
188 187 184 181 178 176 176 176 179 176 175 175 178 183 182 180 177 176 177 179 182 185 185 187 189 188 193 197 200 204 212 216 223 230 235 214 221 236 244 245 244 244 244
193 185 185 182 181 179 180 178 182 178 177 180 182 185 187 185 182 181 184 186 187 187 187 191 192 198 200 203 212 219 225 232 234 238 239 244 234 227 236 242 247 249 252
189 187 184 182 183 181 180 178 182 182 180 182 183 187 190 189 186 185 189 192 189 187 190 192 195 200 203 211 218 221 230 234 244 246 244 243 246 245 232 229 241 249 256
184 184 180 185 182 180 178 176 182 180 182 185 186 190 192 192 190 190 192 191 189 191 194 194 201 205 208 216 225 232 239 243 248 247 248 248 247 249 253 228 232 246 254
178 176 180 185 183 177 175 172 178 180 183 188 191 194 194 194 193 194 193 193 190 192 195 197 201 204 212 217 225 239 247 249 248 246 247 246 244 243 247 250 240 237 242
156 179 181 184 184 177 178 178 180 186 186 191 197 199 199 198 196 196 196 195 195 197 198 199 201 205 208 208 223 239 243 240 241 238 238 238 232 233 241 246 252 256 247
127 162 181 187 185 183 187 181 183 183 189 193 195 202 203 202 200 199 200 198 198 200 201 201 199 204 203 201 213 227 239 227 220 226 226 229 230 220 231 241 244 249 261
113 179 195 193 188 182 182 177 178 179 184 191 196 201 204 203 202 203 205 204 202 203 204 202 201 204 205 203 212 218 229 234 216 206 215 221 221 220 223 226 240 251 258
210 180 203 190 192 183 177 183 188 198 206 205 197 200 202 204 202 203 204 204 203 204 207 207 206 208 208 208 209 226 243 261 241 234 211 218 227 238 235 228 236 249 262
60 148 186 173 178 188 191 191 198 209 212 205 197 198 200 203 203 201 201 202 203 204 206 204 202 206 207 212 211 207 221 234 243 250 253 240 234 234 239 246 253 255 257
48 119 139 149 165 180 181 190 199 205 207 210 202 197 202 202 202 202 201 202 203 204 208 208 205 205 208 212 214 212 213 217 220 229 246 254 253 242 235 240 243 243 243
Height
1499 1502 1506 1510 1513 1516 1519 1522 1524 1526 1528 1530 1532 1534 1536 1537 1539 1541 1542 1544 1545 1546 1547 1548 1548 1549 1550 1550 1550 1551 1551 1551 1552 1552 1552 1552 1552 1552 1552 1552 1552 1552 1551
1497 1501 1504 1509 1513 1516 1518 1521 1523 1526 1528 1530 1532 1534 1536 1538 1540 1542 1543 1545 1546 1547 1548 1549 1550 1551 1551 1552 1552 1553 1553 1553 1554 1554 1554 1555 1555 1555 1554 1554 1554 1553 1553
1496 1500 1504 1508 1512 1515 1518 1521 1523 1526 1528 1530 1533 1535 1537 1539 1541 1543 1544 1546 1547 1548 1550 1551 1552 1552 1553 1554 1554 1555 1555 1556 1556 1557 1557 1557 1557 1557 1556 1556 1556 1555 1555
1497 1500 1503 1507 1511 1515 1518 1521 1523 1526 1528 1530 1533 1535 1537 1539 1541 1543 1545 1547 1548 1550 1551 1552 1553 1554 1555 1556 1556 1557 1557 1558 1558 1559 1560 1560 1559 1559 1558 1558 1558 1557 1557
1497 1501 1503 1507 1511 1514 1517 1520 1523 1526 1528 1531 1533 1535 1538 1540 1542 1544 1546 1548 1549 1551 1552 1554 1555 1556 1557 1558 1558 1559 1559 1560 1560 1561 1561 1561 1561 1560 1560 1560 1559 1559 1559
1497 1501 1503 1507 1511 1514 1517 1520 1523 1526 1528 1531 1533 1535 1538 1540 1543 1545 1547 1549 1550 1552 1554 1555 1556 1558 1559 1559 1560 1561 1561 1561 1562 1562 1563 1563 1563 1562 1562 1562 1561 1561 1560
1497 1501 1503 1507 1511 1514 1517 1520 1523 1526 1528 1531 1533 1536 1538 1541 1543 1545 1547 1550 1552 1553 1555 1556 1558 1559 1560 1561 1562 1562 1563 1563 1564 1564 1564 1564 1564 1563 1563 1563 1563 1562 1562
1497 1500 1503 1507 1510 1513 1517 1520 1523 1526 1529 1531 1534 1536 1539 1541 1544 1546 1548 1550 1553 1555 1556 1558 1559 1560 1561 1562 1563 1564 1564 1564 1565 1565 1565 1565 1565 1565 1565 1564 1564 1563 1563
1497 1499 1502 1506 1510 1513 1516 1519 1523 1526 1529 1531 1534 1537 1539 1542 1544 1547 1549 1551 1553 1556 1557 1559 1560 1561 1563 1563 1564 1565 1565 1566 1567 1566 1567 1567 1566 1566 1566 1565 1565 1565 1564
1496 1499 1502 1505 1509 1513 1516 1519 1522 1526 1529 1532 1534 1537 1540 1542 1545 1548 1550 1552 1554 1556 1558 1560 1561 1562 1563 1564 1565 1566 1566 1567 1567 1567 1568 1567 1567 1567 1567 1566 1566 1565 1565
1494 1497 1500 1504 1508 1512 1515 1519 1522 1526 1529 1531 1534 1537 1540 1543 1545 1548 1550 1553 1555 1557 1559 1560 1562 1563 1564 1565 1566 1566 1567 1568 1568 1568 1568 1568 1567 1567 1567 1567 1566 1566 1565
1491 1495 1499 1502 1506 1510 1514 1518 1521 1525 1528 1531 1533 1536 1539 1542 1545 1547 1550 1552 1555 1557 1559 1560 1562 1563 1564 1565 1566 1567 1567 1568 1568 1568 1568 1568 1568 1567 1567 1567 1566 1566 1565
1488 1492 1496 1500 1504 1508 1512 1516 1519 1523 1526 1529 1532 1535 1538 1541 1544 1546 1549 1552 1554 1557 1558 1560 1562 1563 1564 1565 1566 1567 1567 1568 1568 1568 1568 1567 1567 1567 1567 1566 1566 1565 1565
1486 1490 1494 1498 1502 1506 1509 1513 1517 1520 1524 1527 1530 1534 1536 1539 1542 1545 1548 1550 1553 1555 1557 1559 1561 1562 1564 1565 1566 1566 1567 1567 1568 1568 1567 1567 1567 1566 1566 1566 1565 1565 1564
1484 1487 1491 1495 1499 1504 1507 1511 1515 1518 1521 1525 1528 1532 1535 1538 1541 1543 1546 1549 1551 1554 1556 1558 1560 1561 1563 1564 1565 1565 1566 1566 1566 1566 1567 1566 1566 1565 1565 1565 1564 1564 1563
1482 1485 1489 1493 1497 1501 1505 1508 1512 1515 1519 1523 1526 1530 1533 1536 1539 1541 1544 1547 1549 1552 1554 1556 1558 1560 1561 1562 1563 1564 1565 1565 1565 1565 1565 1565 1564 1564 1564 1563 1563 1562 1562
1479 1482 1486 1491 1495 1499 1503 1506 1510 1513 1517 1521 1524 1527 1531 1533 1536 1539 1542 1545 1547 1550 1552 1554 1556 1558 1560 1561 1562 1562 1563 1563 1563 1563 1563 1563 1563 1562 1562 1561 1561 1560 1560
1476 1480 1484 1488 1492 1496 1500 1503 1507 1511 1514 1518 1522 1525 1528 1531 1534 1537 1540 1542 1545 1547 1550 1552 1554 1556 1557 1559 1560 1560 1561 1561 1561 1561 1561 1560 1560 1560 1559 1559 1558 1558 1557
1474 1477 1481 1486 1489 1493 1497 1501 1505 1508 1512 1516 1519 1522 1525 1528 1531 1534 1537 1540 1542 1544 1547 1549 1551 1553 1555 1556 1557 1558 1558 1558 1558 1558 1558 1558 1557 1557 1556 1556 1555 1555 1554
1471 1474 1479 1483 1487 1490 1495 1498 1502 1506 1509 1513 1516 1519 1523 1525 1528 1531 1534 1536 1539 1541 1543 1546 1548 1550 1552 1553 1554 1555 1555 1555 1555 1555 1555 1555 1554 1554 1553 1553 1552 1551 1551
1467 1472 1476 1480 1484 1487 1492 1495 1499 1502 1506 1510 1513 1516 1519 1522 1525 1528 1530 1533 1535 1537 1540 1542 1545 1547 1548 1550 1552 1552 1552 1552 1552 1552 1552 1551 1551 1550 1550 1549 1549 1548 1548
1466 1469 1473 1478 1481 1485 1488 1492 1496 1500 1503 1507 1510 1513 1516 1519 1521 1524 1526 1529 1531 1534 1536 1538 1540 1543 1544 1546 1548 1549 1550 1551 1548 1548 1548 1547 1547 1547 1546 1546 1545 1545 1544
1466 1468 1472 1476 1479 1483 1485 1489 1493 1497 1500 1503 1506 1508 1512 1515 1517 1520 1523 1525 1527 1530 1532 1534 1536 1538 1540 1542 1543 1546 1546 1546 1546 1545 1544 1544 1544 1543 1543 1542 1542 1541 1540
1467 1469 1471 1474 1477 1480 1483 1486 1489 1493 1495 1498 1501 1504 1507 1510 1513 1515 1518 1520 1523 1525 1527 1529 1531 1533 1536 1537 1539 1540 1542 1542 1543 1542 1541 1541 1540 1540 1539 1539 1538 1537 1536
1466 1467 1469 1471 1474 1477 1480 1483 1485 1488 1491 1494 1497 1500 1503 1505 1508 1511 1513 1515 1518 1520 1522 1524 1526 1528 1530 1532 1534 1535 1536 1537 1538 1539 1538 1537 1537 1536 1535 1535 1534 1533 1532
1465 1467 1468 1469 1472 1475 1477 1480 1483 1485 1487 1489 1492 1495 1498 1500 1503 1505 1508 1510 1513 1515 1517 1519 1521 1523 1525 1527 1529 1530 1531 1532 1532 1533 1533 1533 1532 1532 1531 1530 1529 1528 1527